Regional Weather Roundup
Issued by NWS Upton, NY

Current Version | Previous Version | Graphics & Text | Print | Product List | Glossary Off
Versions: 1 2 3 4 5 6 7 8 9 10 11 12 13 14 15 16 17 18 19 20 21 22 23 24 25 26 27 28 29 30 31 32 33 34 35 36 37 38 39 40 41 42 43 44 45 46 47 48 49 50

000
ASUS41 KOKX 231908
RWROKX

REGIONAL WEATHER ROUNDUP
NATIONAL WEATHER SERVICE NEW YORK NY
300 PM EDT SUN APR 23 2017

NOTE: "FAIR" INDICATES FEW OR NO CLOUDS BELOW 12,000 FEET WITH NO
SIGNIFICANT WEATHER AND/OR OBSTRUCTIONS TO VISIBILITY.

NYZ071-072-176-178-NJZ106-104-232000-
NEW YORK CITY METRO AREA

CITY           SKY/WX    TMP DP  RH WIND       PRES   REMARKS
Central Park   MOSUNNY   64  34  32 CALM      30.10F
Wall St Helipt PTCLDY    61  39  44 SW8       30.10F
Bronx Bot Gard   N/A     63  32  31 SE3       30.10R
LaGuardia APRT MOSUNNY   64  34  32 S9        30.07F
Kennedy INTL   PTSUNNY   57  42  57 S13       30.11F
Breezy Point     N/A     54 N/A N/A S10         N/A
Newark/Liberty PTSUNNY   63  34  33 VRB5      30.08F
Teterboro      MOSUNNY   65  32  29 SE3       30.06F
$$

NYZ177-179-078>081-232000-
LONG ISLAND NEW YORK

CITY           SKY/WX    TMP DP  RH WIND       PRES   REMARKS
Jones Beach      N/A     52 N/A N/A S12         N/A
Matinecock PT    N/A     57 N/A N/A SW5         N/A
Farmingdale    MOSUNNY   54  41  61 S13       30.09F
MacArthur/ISP  PTSUNNY   56  41  57 S12       30.09F
Shirley        MOSUNNY   54  39  57 S9        30.10F
Mt Sinai Harb    N/A     57 N/A N/A NE1         N/A
Westhampton    SUNNY     54  36  50 S9        30.12F
East Hampton     N/A     54  37  52 SE10      30.09F
Montauk          N/A     56  41  57 VRB3      30.12F
$$

NYZ052-065-067-232000-
HUDSON VALLEY

CITY           SKY/WX    TMP DP  RH WIND       PRES   REMARKS
White Plains   SUNNY     65  36  34 VRB6      30.06F
Larchmont Harb   N/A     55 N/A N/A SE7         N/A
Croton O-T Hud   N/A     59 N/A N/A SW2         N/A
Newburgh       NOT AVBL
Montgomery     SUNNY     65  30  27 NW3       30.05F
Poughkeepsie   SUNNY     65  31  28 N3        30.04F
Albany         MOSUNNY   66  34  30 SE7       30.05F
$$

NJZ001-105-106-008-010-013-015-019>022-104-232000-
NEW JERSEY

CITY           SKY/WX    TMP DP  RH WIND       PRES   REMARKS
Newark/Liberty PTSUNNY   63  34  33 VRB5      30.08F
Teterboro      MOSUNNY   65  32  29 SE3       30.06F
Caldwell       SUNNY     65  31  28 SW3       30.07F
Somerville     PTSUNNY   66  39  37 VRB5      30.06F
Linden           N/A     65  34  32 CALM      30.09S
Sussex         SUNNY     64  30  27 CALM      30.07F
Andover          N/A     66  30  26 N5        30.06F
Trenton        MOSUNNY   62  40  44 VRB3      30.08F
Millville      CLOUDY    60  48  64 SW8       30.10S
Atlantic City  CLOUDY    55  43  63 E9        30.12S
Wrightstown    MOSUNNY   64  42  44 CALM      30.06F
Toms River     MOSUNNY   59  43  55 VRB6      30.11F
Belmar         MOSUNNY   58  37  45 SE8       30.11F
$$

PAZ047>061-062-071-232000-
EASTERN PENNSYLVANIA

CITY           SKY/WX    TMP DP  RH WIND       PRES   REMARKS
Philadelphia   PTSUNNY   63  40  42 S3        30.10F
Allentown      CLOUDY    64  36  35 S5        30.08F
Scranton       SUNNY     67  28  23 NW7       30.04F
$$

CTZ002-004>006-009-010-012-RIZ004-006-007-MAZ004-011-015-232000-
SOUTHERN NEW ENGLAND
 IN CT

CITY           SKY/WX    TMP DP  RH WIND       PRES   REMARKS
Bradley INTL   MOSUNNY   67  32  27 CALM      30.04F
Hartford       SUNNY     65  36  34 VRB5      30.04F
Danbury        SUNNY     63  35  35 CALM      30.06F
Wtrbury/Oxford MOSUNNY   64  36  34 VRB5      30.06F
Bridgeport     CLOUDY    60  36  40 SW10      30.08F
Meriden        CLOUDY    66  33  29 S3        30.05F
New Haven      CLOUDY    56  40  55 SW12      30.08F
Chester          N/A     59  37  44 S10       30.06F
Groton         MOSUNNY   54  41  61 S12       30.08F
Wilimantic     SUNNY     67  35  30 W8        30.05F

 IN RI

CITY           SKY/WX    TMP DP  RH WIND       PRES   REMARKS
Providence     CLOUDY    60  42  51 SE14      30.07F
Block Island   CLOUDY    52  40  63 S12       30.11F
Westerly       CLOUDY    53  40  61 S13       30.10F
 IN MA

CITY           SKY/WX    TMP DP  RH WIND       PRES   REMARKS
Boston         MOSUNNY   53  38  56 E16       30.05F
Worcester      SUNNY     62  30  29 CALM      30.04F
Westfield      SUNNY     67  34  29 VRB7      30.03F
Provincetown   SUNNY     52  39  61 NE8       30.09F
Nantucket      MOSUNNY   50  40  68 S14       30.10S
$$

ANZ330-335-338-340-345-350-353-355-232000-
COASTAL MARINE OBSERVATIONS


STATION/POSITION TIME  SKY/WX   TEMP    WIND        PRES    VSBY  WAVE
                                AIR SEA DIR/SP/G                  HT/PER
                 (UTC)          (F)     (DEG/KT/KT) (MB)    (MI)  (FT/S)
NY HARB ENTRANCE 1750            50 51  180/  8/ 10 1020.2          3/11
20 S FIRE ISLAND 1850            49 51  160/  6/  8 1019.3          3/11
GREAT SOUTH BAY  1830            50 56  210/ 10/ 12   N/A
23 SSW MONTAUK P 1750            48 49              1020.6          3/11
15 E BARNEGAT LI 1830               51                N/A           4/10
HUDSON CANYON    1750            48 49   20/  4/  4 1020.6          5/11
KINGS POINT      1848            59 48   CALM  /  3 1018.5
EXECUTION ROCKS  NOT AVBL
CENTRAL LI SOUND NOT AVBL
EASTERN LI SOUND NOT AVBL
ROBBINS REEF     1848            53     160/ 15/ 16 1019.1
$$


>>>>>>>>>>>>>>>>>>>>>>>>>>>> KEY <<<<<<<<<<<<<<<<<<<<<<<<<<<
>                                                          <
>     SKY/WX - Sky Condition/Present Weather               <
>     TMP    - Temperature in Fahrenheit                   <
>     DP     - Dew Point in Fahrenheit                     <
>     RH     - Relative Humidity in Percent                <
>     WIND   - Direction (from) and Speed in MPH           <
>     PRES   - Mean Sea Level Pressure (inches of Hg)      <
>     WCI    - Wind Chill Index                            <
>     VSB    - VISIBILITY IN MILES                         <
>     HX     - HEAT INDEX                                  <
>     TC     - TEMPERATURE IN CELSIUS                      <
>     VRB    - VARIABLE WIND DIRECTION                     <
>                                                          <
>>>>>>>>>>>>>>>>>>>>>>>>>>>> KEY <<<<<<<<<<<<<<<<<<<<<<<<<<<



USA.gov is the U.S. government's official web portal to all federal, state and local government web resources and services.